Regional Weather Roundup
Issued by NWS

Home | Current Version | Previous Version | Text Only | Print | Product List | Glossary On
Versions: 1 2 3 4 5 6 7 8 9 10 11 12 13 14 15 16 17 18 19 20 21 22 23 24 25 26 27 28 29 30 31 32 33 34 35 36 37 38 39 40 41 42 43 44 45 46 47 48 49 50
000
ASUS45 KSLC 241410
RWRUT

UTAH REGIONAL WEATHER ROUNDUP
NATIONAL WEATHER SERVICE SALT LAKE CITY UT
700 AM MST FRI FEB 24 2017

UTZ001>011-023>025-241500-

NORTHERN UTAH

CITY           SKY/WX    TMP DP  RH WIND       PRES   REMARKS
BRIGHAM CITY     N/A     25  22  88 CALM      30.00R
HILL AFB       MOCLDY    23  19  87 SW7       29.96S WCI  14
LOGAN          CLOUDY    26  22  84 W3        29.96R
OGDEN          CLOUDY    24  20  84 SW7       29.97R WCI  16
SALT LAKE CITY CLOUDY    27  20  75 W12       30.00R WCI  17
TOOELE VALLEY  LGT SNOW  27  23  86 NW3       30.02R
WENDOVER       PTCLDY    25   7  46 NW10      30.03R WCI  15
HEBER CITY     CLOUDY    10   7  85 E3        29.91S
WEST JORDAN    CLOUDY    27  25  94 W8        30.00R WCI  18

$$

UTZ011>015-024>027-241500-

CENTRAL/NORTHEAST UTAH

CITY           SKY/WX    TMP DP  RH WIND       PRES   REMARKS
PROVO AIRPORT  MOCLDY    23  21  92 CALM      30.00R
MOAB/CANYONLAN CLOUDY    28  17  63 NE3       29.89R
DELTA          CLOUDY    18  18 100 NW6       30.01R WCI   9
PRICE          PTCLDY    21  11  65 NW3       29.87R
ROOSEVELT      CLOUDY    19  14  79 SW5       29.90R WCI  13
VERNAL         CLOUDY    16  13  88 W5        29.88R WCI   9

$$

UTZ013>016-019>022-027-241500-

SOUTHERN UTAH

CITY           SKY/WX    TMP DP  RH WIND       PRES   REMARKS
BRYCE CANYON   LGT SNOW  15  10  80 NW9       29.88R VSB 1   WCI   3
CEDAR CITY     CLEAR     19   9  65 S3        29.98R
MILFORD        LGT SNOW  24  22  91 CALM      30.00R FOG
ST GEORGE      MOSUNNY   35  16  45 W9        30.07R WCI  28
HANKSVILLE     MOCLDY    27  12  54 CALM      29.95R
BLANDING       CLEAR     21  13  73 NW7       29.95R WCI  12

$$

REGIONAL REPORTS     COLORADO/ARIZONA

CITY           SKY/WX    TMP DP  RH WIND       PRES   REMARKS
CRAIG, CO      LGT SNOW  16  10  77 SW6       29.85R WCI   7
GRAND JUNCTION CLOUDY    25  23  92 W3        29.88R
RIFLE, CO      CLOUDY    24  20  84 SW6       29.86R WCI  17
MONTROSE, CO   CLOUDY    21  16  81 SE3       29.88R
CORTEZ, CO     CLEAR     19  16  88 E5        29.88R WCI  12
COLORADO CITY    N/A     21  18  86 NE8       30.04R WCI  12
PAGE, AZ       CLEAR     32   9  38 CALM      29.96R
GRAND CANYON   CLEAR     13  10  88 NE5       29.96R WCI   5
KINGMAN, AZ    CLEAR     26   4  38 E6        30.05R WCI  19
FLAGSTAFF, AZ  CLEAR     16   6  65 SW6       29.95R WCI   7

$$

REGIONAL REPORTS    NEVADA/IDAHO/WYOMING

CITY           SKY/WX    TMP DP  RH WIND       PRES   REMARKS
LAS VEGAS, NV  CLEAR     39  17  41 CALM      30.07R
ELY, NY        CLOUDY    10   6  84 S5        30.00R WCI   2
ELKO, NV       CLOUDY    21  13  71 SW6       30.04R WCI  13
POCATELLO, ID  LGT SNOW  21  18  88 SW21      29.96R FOG     WCI   5
BURLEY, ID     FLURRIES  24  14  65 SW21G30   29.97R WCI   9
FORT BRIDGER,  LGT SNOW  12  11  96 W13       29.86R WCI  -2
EVANSTON, WY   CLOUDY    12   7  80 SW7       29.84R WCI   1
ROCK SPRINGS,  CLOUDY    12   8  84 SW5       29.83R WCI   4

$$



USA.gov is the U.S. government's official web portal to all federal, state and local government web resources and services.